Weather History for Dublin, VA

Change the Weather History Date:

Tuesday, February 19, 2013

  Actual Average (KBCB) Record (KBCB)
Temperature  
Mean Temperature 40 °F 35 °F  
Max Temperature 46 °F 46 °F 65 °F (1984)
Min Temperature 33 °F 24 °F -2 °F (1958)
Degree Days  
Heating Degree Days 26 30  
Month to date heating degree days 600  
Since 1 July heating degree days 3787  
Cooling Degree Days 0 0  
Month to date cooling degree days 0  
Year to date cooling degree days 0  
Moisture  
Dew Point 26 °F    
Average Humidity 62    
Maximum Humidity 100    
Minimum Humidity 26    
Precipitation  
Precipitation 0.02 in 0.10 in 0.90 in (1960)
Month to date precipitation 1.92  
Year to date precipitation 5.00  
Snow  
Snow 0.00 in - - ()
Month to date snowfall  
Since 1 July snowfall  
Snow Depth -    
Sea Level Pressure  
Sea Level Pressure 29.93 in    
Wind  
Wind Speed 12 mph (SW)    
Max Wind Speed 23 mph    
Max Gust Speed 31 mph    
Visibility 9 miles    
Events Rain , Snow    
T = Trace of Precipitation, MM = Missing Value Source: NWS Daily Summary

Daily Weather History Graph

Daily Weather History Graph

Search for Another Location

Airport:

Trip Planner

Search our weather history database for the weather conditions in past years. The results will help you decide how hot, cold, wet, or windy it might be!

Date:

Astronomy

Feb. 19, 2013 Rise Set
Actual Time 7:06 AM EST 6:07 PM EST
Civil Twilight 6:40 AM EST 6:33 PM EST
Nautical Twilight 6:09 AM EST 7:03 PM EST
Astronomical Twilight 5:39 AM EST 7:34 PM EST
Moon 12:41 PM EST (2/19) 2:32 AM EST (2/19)
Length of Visible Light 11h 53m
Length of Day
11h 00m
Waxing Gibbous, 67% of the Moon is Illuminated
Feb 19
Waxing Gibbous
Feb 25
Full
Mar 4
Last Quarter
Mar 11
New
Mar 19
First Quarter

Hourly Weather History & Observations

Time (EST) Temp. Windchill Dew Point Humidity Pressure Visibility Wind Dir Wind Speed Gust Speed Precip Events Conditions
12:15 AM 39.2 °F 32.0 °F 23.0 °F 52% 30.09 in 10.0 mi South 11.5 mph 18.4 mph N/A   Clear
12:35 AM 39.2 °F 33.0 °F 24.8 °F 56% 30.10 in 10.0 mi SSW 9.2 mph - N/A   Clear
12:55 AM 39.2 °F 32.0 °F 24.8 °F 56% 30.08 in 10.0 mi South 11.5 mph 18.4 mph N/A   Clear
1:15 AM 37.4 °F 32.8 °F 24.8 °F 60% 30.08 in 10.0 mi South 5.8 mph - N/A   Clear
1:35 AM 39.2 °F 33.6 °F 23.0 °F 52% 30.07 in 10.0 mi South 8.1 mph 21.9 mph N/A   Clear
1:55 AM 39.2 °F 30.5 °F 23.0 °F 52% 30.06 in 10.0 mi SSW 16.1 mph 21.9 mph N/A   Clear
2:15 AM 39.2 °F 32.5 °F 23.0 °F 52% 30.04 in 10.0 mi SSW 10.4 mph 21.9 mph N/A   Clear
2:35 AM 39.2 °F 33.0 °F 23.0 °F 52% 30.02 in 10.0 mi South 9.2 mph - N/A   Clear
2:55 AM 37.4 °F 29.8 °F 23.0 °F 56% 30.01 in 10.0 mi South 11.5 mph 16.1 mph N/A   Clear
3:15 AM 39.2 °F 31.2 °F 23.0 °F 52% 30.00 in 10.0 mi SSW 13.8 mph - N/A   Clear
3:35 AM 39.2 °F 32.5 °F 23.0 °F 52% 30.01 in 10.0 mi SSW 10.4 mph - N/A   Clear
3:55 AM 39.2 °F 32.5 °F 23.0 °F 52% 30.00 in 10.0 mi SSW 10.4 mph - N/A   Scattered Clouds
4:15 AM 39.2 °F 31.6 °F 23.0 °F 52% 29.99 in 10.0 mi SSW 12.7 mph 17.3 mph N/A   Mostly Cloudy
4:35 AM 39.2 °F 32.0 °F 21.2 °F 49% 30.00 in 10.0 mi SSW 11.5 mph - N/A   Scattered Clouds
4:55 AM 39.2 °F 30.2 °F 21.2 °F 49% 30.00 in 10.0 mi SW 17.3 mph 20.7 mph N/A   Mostly Cloudy
5:15 AM 39.2 °F 31.2 °F 21.2 °F 49% 30.00 in 10.0 mi SSW 13.8 mph 18.4 mph N/A   Overcast
5:35 AM 39.2 °F 31.2 °F 21.2 °F 49% 29.99 in 10.0 mi SSW 13.8 mph - N/A   Mostly Cloudy
5:55 AM 39.2 °F 30.5 °F 26.6 °F 61% 29.99 in 2.5 mi SSW 16.1 mph 28.8 mph N/A   Unknown
6:15 AM 35.6 °F 24.5 °F 30.2 °F 81% 29.99 in 3.0 mi SSW 20.7 mph 26.5 mph N/A Snow Light Snow
6:55 AM 33.8 °F 25.3 °F 32.0 °F 93% 29.99 in 3.0 mi SSW 11.5 mph - 0.01 in Snow Light Snow
7:15 AM 35.6 °F 27.1 °F 33.8 °F 93% 29.98 in 3.0 mi SW 12.7 mph 18.4 mph N/A Snow Light Snow
7:35 AM 35.6 °F 28.0 °F 33.8 °F 93% 29.98 in 4.0 mi SW 10.4 mph - 0.01 in Snow Light Snow
7:55 AM 35.6 °F 27.5 °F 33.8 °F 93% 29.97 in 5.0 mi SSW 11.5 mph - 0.01 in Snow Light Snow
8:15 AM 35.6 °F 28.0 °F 35.6 °F 100% 29.96 in 10.0 mi SW 10.4 mph 16.1 mph N/A   Overcast
8:35 AM 37.4 °F 30.8 °F 35.6 °F 93% 29.94 in 10.0 mi SSW 9.2 mph - N/A   Overcast
8:55 AM 37.4 °F 30.8 °F 35.6 °F 93% 29.93 in 10.0 mi SSW 9.2 mph - N/A   Overcast
9:15 AM 37.4 °F 31.4 °F 35.6 °F 93% 29.92 in 10.0 mi SSW 8.1 mph - N/A   Overcast
9:35 AM 39.2 °F 34.2 °F 37.4 °F 93% 29.91 in 10.0 mi SSW 6.9 mph - N/A   Overcast
9:55 AM 39.2 °F 33.0 °F 37.4 °F 93% 29.90 in 10.0 mi SSW 9.2 mph - N/A   Overcast
10:15 AM 41.0 °F 35.2 °F 37.4 °F 87% 29.90 in 10.0 mi SSW 9.2 mph - N/A   Overcast
10:35 AM 42.8 °F 37.5 °F 39.2 °F 87% 29.90 in 10.0 mi SSW 9.2 mph - N/A   Overcast
10:55 AM 42.8 °F 37.0 °F 37.4 °F 81% 29.89 in 10.0 mi SSW 10.4 mph 18.4 mph N/A   Mostly Cloudy
11:15 AM 42.8 °F 37.0 °F 39.2 °F 87% 29.89 in 10.0 mi SSW 10.4 mph 17.3 mph N/A   Overcast
11:35 AM 42.8 °F 36.6 °F 39.2 °F 87% 29.88 in 10.0 mi SSW 11.5 mph - N/A   Overcast
11:55 AM 44.6 °F 38.8 °F 41.0 °F 87% 29.88 in 10.0 mi SW 11.5 mph - N/A   Overcast
12:15 PM 42.8 °F 37.5 °F 39.2 °F 87% 29.87 in 7.0 mi WSW 9.2 mph - N/A Rain Rain
12:35 PM 42.8 °F 36.2 °F 41.0 °F 93% 29.85 in 10.0 mi WSW 12.7 mph 18.4 mph N/A   Overcast
12:55 PM 42.8 °F 35.1 °F 39.2 °F 87% 29.85 in 10.0 mi WSW 16.1 mph 25.3 mph N/A   Overcast
1:15 PM 42.8 °F 34.5 °F 39.2 °F 87% 29.84 in 10.0 mi WSW 18.4 mph 23.0 mph N/A   Overcast
1:35 PM 44.6 °F 38.1 °F 41.0 °F 87% 29.83 in 10.0 mi WSW 13.8 mph 23.0 mph N/A   Mostly Cloudy
1:55 PM 44.6 °F 37.2 °F 39.2 °F 81% 29.83 in 10.0 mi WSW 17.3 mph 25.3 mph N/A   Mostly Cloudy
2:15 PM 42.8 °F 34.0 °F 37.4 °F 81% 29.82 in 7.0 mi WSW 20.7 mph 28.8 mph N/A Rain Light Rain
2:35 PM 44.6 °F 37.2 °F 39.2 °F 81% 29.82 in 10.0 mi WSW 17.3 mph 23.0 mph N/A   Scattered Clouds
2:55 PM 46.4 °F 39.2 °F 35.6 °F 66% 29.81 in 10.0 mi WSW 18.4 mph 26.5 mph N/A   Clear
3:15 PM 44.6 °F 37.8 °F 33.8 °F 66% 29.81 in 7.0 mi West 15.0 mph 23.0 mph N/A Rain Rain
3:35 PM 42.8 °F 35.1 °F 35.6 °F 76% 29.81 in 10.0 mi WSW 16.1 mph 26.5 mph N/A Rain Light Rain
4:15 PM 46.4 °F 38.3 °F 24.8 °F 43% 29.81 in 10.0 mi West 23.0 mph 31.1 mph N/A   Scattered Clouds
4:35 PM 44.6 °F 35.9 °F 21.2 °F 39% 29.82 in 10.0 mi West 23.0 mph 29.9 mph N/A   Mostly Cloudy
4:55 PM 44.6 °F 36.1 °F 19.4 °F 37% 29.83 in 10.0 mi West 21.9 mph 31.1 mph N/A   Overcast
5:15 PM 44.6 °F 37.4 °F 15.8 °F 31% 29.84 in 10.0 mi West 16.1 mph 27.6 mph N/A   Mostly Cloudy
5:35 PM 44.6 °F 38.1 °F 17.6 °F 34% 29.85 in 10.0 mi West 13.8 mph 19.6 mph N/A   Mostly Cloudy
5:55 PM 42.8 °F 34.8 °F 19.4 °F 39% 29.86 in 10.0 mi West 17.3 mph 25.3 mph N/A   Mostly Cloudy
6:15 PM 42.8 °F 36.6 °F 19.4 °F 39% 29.87 in 10.0 mi West 11.5 mph 20.7 mph N/A   Scattered Clouds
7:35 PM 39.2 °F 33.0 °F 8.6 °F 28% 29.91 in 10.0 mi WNW 9.2 mph - N/A   Clear
7:55 PM 39.2 °F 29.8 °F 6.8 °F 26% 29.91 in 10.0 mi WNW 18.4 mph 25.3 mph N/A   Clear
8:35 PM 37.4 °F 29.3 °F 8.6 °F 30% 29.93 in 10.0 mi West 12.7 mph - N/A   Clear
8:55 PM 37.4 °F 29.8 °F 8.6 °F 30% 29.93 in 10.0 mi West 11.5 mph 20.7 mph N/A   Clear
9:15 PM 35.6 °F 28.6 °F 10.4 °F 35% 29.94 in 10.0 mi West 9.2 mph 18.4 mph N/A   Clear
9:35 PM 35.6 °F 29.9 °F 10.4 °F 35% 29.94 in 10.0 mi West 6.9 mph - N/A   Clear
9:55 PM 35.6 °F 26.6 °F 10.4 °F 35% 29.95 in 10.0 mi WNW 13.8 mph 23.0 mph N/A   Clear
10:15 PM 35.6 °F 26.2 °F 10.4 °F 35% 29.95 in 10.0 mi West 15.0 mph 24.2 mph N/A   Clear
10:35 PM 35.6 °F 26.2 °F 10.4 °F 35% 29.95 in 10.0 mi West 15.0 mph 28.8 mph N/A   Clear
10:55 PM 33.8 °F 25.3 °F 12.2 °F 41% 29.95 in 10.0 mi West 11.5 mph - N/A   Clear
11:15 PM 33.8 °F 24.8 °F 14.0 °F 44% 29.95 in 10.0 mi West 12.7 mph 17.3 mph N/A   Clear
11:35 PM 33.8 °F 22.5 °F 12.2 °F 41% 29.95 in 10.0 mi West 19.6 mph 26.5 mph N/A   Clear
11:55 PM 33.8 °F 23.5 °F 10.4 °F 38% 29.95 in 10.0 mi West 16.1 mph 29.9 mph N/A   Clear